Weather History for Annette Island, AK

Change the Weather History Date:

Tuesday, February 12, 2013

  Actual Average Record
Temperature  
Mean Temperature 42 °F 38 °F  
Max Temperature 44 °F 43 °F 54 °F (1963)
Min Temperature 39 °F 33 °F 10 °F (1975)
Degree Days  
Heating Degree Days 23 27  
Month to date heating degree days 290 327  
Since 1 July heating degree days 4113 4106  
Cooling Degree Days 0    
Month to date cooling degree days 0  
Year to date cooling degree days 0  
Moisture  
Dew Point 38 °F    
Average Humidity 0    
Maximum Humidity 0    
Minimum Humidity 0    
Precipitation  
Precipitation 0.72 in 0.27 in 2.34 in (1965)
Month to date precipitation 5.30 3.36  
Year to date precipitation 13.50 14.09  
Snow  
Snow 0.00 in 0.20 in 9.80 in (1973)
Month to date snowfall 0.0 3.0  
Since 1 July snowfall 11.9 22.3  
Snow Depth 0.00 in    
Sea Level Pressure  
Sea Level Pressure 29.78 in    
Wind  
Wind Speed 10 mph (WSW)    
Max Wind Speed 17 mph    
Max Gust Speed 29 mph    
Visibility 8 miles    
Events Rain    
T = Trace of Precipitation, MM = Missing Value Source: NWS Daily Summary

Daily Weather History Graph

Daily Weather History Graph

Search for Another Location

Airport:

Trip Planner

Search our weather history database for the weather conditions in past years. The results will help you decide how hot, cold, wet, or windy it might be!

Date:

Astronomy

Feb. 12, 2013 Rise Set
Actual Time 7:14 AM AKST 4:47 PM AKST
Civil Twilight 6:36 AM AKST 5:25 PM AKST
Nautical Twilight 5:53 AM AKST 6:08 PM AKST
Astronomical Twilight 5:11 AM AKST 6:50 PM AKST
Moon 7:39 AM AKST (2/12) 8:37 PM AKST (2/12)
Length of Visible Light 10h 49m
Length of Day
9h 33m
Waxing Crescent, 8% of the Moon is Illuminated
Feb 12
Waxing Crescent
Feb 17
First Quarter
Feb 25
Full
Mar 4
Last Quarter
Mar 11
New

Hourly Weather History & Observations

Time (AKST) Temp. Windchill Dew Point Humidity Pressure Visibility Wind Dir Wind Speed Gust Speed Precip Events Conditions
12:07 AM 42.8 °F 36.2 °F 39.2 °F 87% 29.78 in 4.0 mi SSE 12.7 mph 24.2 mph 0.04 in Rain Rain
12:14 AM 42.8 °F 35.8 °F 41.0 °F 93% 29.77 in 5.0 mi SSE 13.8 mph 24.2 mph 0.06 in Rain Rain
12:20 AM 42.8 °F 35.8 °F 41.0 °F 93% 29.77 in 6.0 mi SSE 13.8 mph 23.0 mph 0.06 in Rain Rain
12:53 AM 43.0 °F 35.4 °F 39.9 °F 89% 29.77 in 5.0 mi South 16.1 mph 25.3 mph 0.16 in Rain Rain
1:53 AM 43.0 °F 36.4 °F 39.9 °F 89% 29.75 in 10.0 mi South 12.7 mph 25.3 mph 0.10 in Rain Light Rain
2:37 AM 42.8 °F 36.6 °F 41.0 °F 93% 29.72 in 8.0 mi SSE 11.5 mph 19.6 mph 0.03 in Rain Light Rain
3:01 AM 42.8 °F 37.5 °F 41.0 °F 93% 29.71 in 9.0 mi South 9.2 mph 19.6 mph 0.01 in Rain Light Rain
3:53 AM 44.1 °F 37.7 °F 41.0 °F 89% 29.69 in 9.0 mi South 12.7 mph 23.0 mph 0.04 in Rain Light Rain
4:29 AM 44.6 °F 39.2 °F 42.8 °F 93% 29.66 in 8.0 mi South 10.4 mph 19.6 mph 0.02 in Rain Light Rain
4:53 AM 44.1 °F 40.1 °F 42.1 °F 93% 29.66 in 7.0 mi Variable 6.9 mph 19.6 mph 0.05 in Rain Light Rain
5:09 AM 44.6 °F 39.7 °F 42.8 °F 93% 29.65 in 10.0 mi South 9.2 mph 19.6 mph 0.01 in Rain Light Rain
5:28 AM 44.6 °F 39.7 °F 42.8 °F 93% 29.64 in 10.0 mi South 9.2 mph 18.4 mph 0.01 in Rain Light Rain
5:53 AM 44.1 °F 38.6 °F 42.1 °F 93% 29.64 in 9.0 mi South 10.4 mph 18.4 mph 0.02 in Rain Light Rain
6:05 AM 44.6 °F 40.7 °F 42.8 °F 93% 29.63 in 10.0 mi South 6.9 mph 17.3 mph 0.01 in Rain Light Rain
6:53 AM 44.1 °F 38.6 °F 42.1 °F 93% 29.62 in 6.0 mi SSW 10.4 mph 17.3 mph 0.03 in Rain Light Rain
7:16 AM 44.6 °F 42.2 °F 42.8 °F 93% 29.61 in 6.0 mi SSW 4.6 mph - 0.01 in Rain Light Rain
7:38 AM 42.8 °F 40.1 °F 42.8 °F 100% 29.60 in 8.0 mi Variable 4.6 mph - 0.04 in Rain Light Rain
7:50 AM 42.8 °F 41.1 °F 42.8 °F 100% 29.60 in 5.0 mi SW 3.5 mph - 0.05 in Rain Light Rain
7:53 AM 43.0 °F 40.3 °F 42.1 °F 97% 29.61 in 6.0 mi SW 4.6 mph - 0.05 in Rain Light Rain
8:07 AM 42.8 °F 40.1 °F 41.0 °F 93% 29.60 in 7.0 mi SW 4.6 mph - 0.01 in Rain Light Rain
8:53 AM 43.0 °F 40.3 °F 41.0 °F 93% 29.62 in 7.0 mi WNW 4.6 mph - 0.05 in Rain Light Rain
9:53 AM 39.0 °F 34.8 °F 37.9 °F 96% 29.65 in 4.0 mi NW 5.8 mph - 0.10 in Rain Rain
10:53 AM 39.0 °F 34.0 °F 37.0 °F 93% 29.68 in 10.0 mi NNW 6.9 mph - 0.08 in Rain Light Rain
11:10 AM 39.2 °F 33.0 °F 37.4 °F 93% 29.68 in 10.0 mi NNW 9.2 mph - 0.01 in Rain Light Rain
11:35 AM 39.2 °F 34.2 °F 37.4 °F 93% 29.70 in 10.0 mi NNW 6.9 mph - 0.01 in   Overcast
11:53 AM 39.9 °F 32.9 °F 37.0 °F 89% 29.72 in 10.0 mi NNW 11.5 mph 16.1 mph 0.01 in   Overcast
12:24 PM 39.2 °F 32.0 °F 37.4 °F 93% 29.74 in 10.0 mi NNW 11.5 mph 18.4 mph N/A   Mostly Cloudy
12:37 PM 39.2 °F 30.8 °F 37.4 °F 93% 29.75 in 10.0 mi NNW 15.0 mph 19.6 mph N/A   Overcast
12:53 PM 41.0 °F 34.7 °F 37.0 °F 86% 29.78 in 10.0 mi NW 10.4 mph 23.0 mph N/A   Mostly Cloudy
1:53 PM 41.0 °F 34.7 °F 36.0 °F 82% 29.83 in 10.0 mi NNW 10.4 mph 18.4 mph N/A   Overcast
2:36 PM 42.8 °F 39.3 °F 35.6 °F 76% 29.85 in 10.0 mi North 5.8 mph - N/A   Mostly Cloudy
2:53 PM 42.1 °F 37.1 °F 34.0 °F 73% 29.88 in 10.0 mi NNW 8.1 mph - N/A   Mostly Cloudy
3:53 PM 39.9 °F 35.1 °F 32.0 °F 73% 29.94 in 10.0 mi NNW 6.9 mph - N/A   Mostly Cloudy
4:53 PM 39.0 °F 35.7 °F 32.0 °F 76% 29.99 in 10.0 mi NNW 4.6 mph - N/A   Partly Cloudy
5:53 PM 37.9 °F 34.4 °F 32.0 °F 79% 30.03 in 10.0 mi North 4.6 mph - N/A   Mostly Cloudy
6:53 PM 37.0 °F 34.5 °F 30.9 °F 79% 30.05 in 10.0 mi NE 3.5 mph - N/A   Clear
7:53 PM 35.1 °F - 30.9 °F 85% 30.10 in 10.0 mi Calm Calm - N/A   Clear
8:53 PM 32.0 °F - 30.9 °F 96% 30.13 in 10.0 mi Calm Calm - N/A   Clear
9:53 PM 36.0 °F 33.3 °F 30.9 °F 82% 30.16 in 10.0 mi NW 3.5 mph - N/A   Overcast
10:53 PM 37.9 °F - 27.0 °F 65% 30.19 in 10.0 mi Calm Calm - N/A   Overcast
11:53 PM 37.9 °F - 28.9 °F 70% 30.22 in 10.0 mi Calm Calm - N/A   Overcast